Satellite: ISS
Catalog number: 25544
Epoch time:      10183.01103237
Element set:     427
Inclination:      051.6465 deg
RA of node:       154.7287 deg
Eccentricity:    0.0010027
Arg of perigee:   032.7085 deg
Mean anomaly:     083.3744 deg
Mean motion:   15.72156097 rev/day
Decay rate:     1.1736e-04 rev/day^2
Epoch rev:           66580
Checksum:              281

Satellite: CO-58
Catalog number: 28895
Epoch time:      10181.20938373
Element set:    0621
Inclination:      098.0130 deg
RA of node:       065.2551 deg
Eccentricity:    0.0016843
Arg of perigee:   242.7994 deg
Mean anomaly:     117.1471 deg
Mean motion:   14.59905393 rev/day
Decay rate:       1.33e-06 rev/day^2
Epoch rev:           24888
Checksum:              321

Satellite: FALCON
Catalog number: 30776
Epoch time:      10181.82611546
Element set:     860
Inclination:      035.4348 deg
RA of node:       321.4855 deg
Eccentricity:    0.0001945
Arg of perigee:   321.3484 deg
Mean anomaly:     038.7092 deg
Mean motion:   15.03701208 rev/day
Decay rate:       5.32e-06 rev/day^2
Epoch rev:           18211
Checksum:              268

Satellite: MAST
Catalog number: 31126
Epoch time:      10181.64493234
Element set:     902
Inclination:      097.9360 deg
RA of node:       222.9615 deg
Eccentricity:    0.0094258
Arg of perigee:   183.5363 deg
Mean anomaly:     176.5137 deg
Mean motion:   14.53597999 rev/day
Decay rate:        5.3e-07 rev/day^2
Epoch rev:           17001
Checksum:              306

Satellite: CAPE1
Catalog number: 31130
Epoch time:      10181.50287584
Element set:     922
Inclination:      097.9355 deg
RA of node:       220.2105 deg
Eccentricity:    0.0102189
Arg of perigee:   191.8484 deg
Mean anomaly:     168.0368 deg
Mean motion:   14.52193616 rev/day
Decay rate:       2.39e-06 rev/day^2
Epoch rev:           16959
Checksum:              301

Satellite: COMPASS
Catalog number: 32787
Epoch time:      10181.20050385
Element set:    0713
Inclination:      097.8934 deg
RA of node:       245.7790 deg
Eccentricity:    0.0014709
Arg of perigee:   241.7957 deg
Mean anomaly:     118.1775 deg
Mean motion:   14.81896430 rev/day
Decay rate:       1.83e-06 rev/day^2
Epoch rev:           11742
Checksum:              312

Satellite: AAUSAT2
Catalog number: 32788
Epoch time:      10181.13478436
Element set:    0705
Inclination:      097.8939 deg
RA of node:       245.8463 deg
Eccentricity:    0.0014210
Arg of perigee:   243.1422 deg
Mean anomaly:     116.8401 deg
Mean motion:   14.82040580 rev/day
Decay rate:       2.54e-06 rev/day^2
Epoch rev:           11742
Checksum:              280

Satellite: DO-64
Catalog number: 32789
Epoch time:      10182.69512034
Element set:     722
Inclination:      097.8998 deg
RA of node:       247.8741 deg
Eccentricity:    0.0014558
Arg of perigee:   235.5215 deg
Mean anomaly:     124.4623 deg
Mean motion:   14.82195463 rev/day
Decay rate:       9.83e-06 rev/day^2
Epoch rev:           11765
Checksum:              336

Satellite: CO-66
Catalog number: 32791
Epoch time:      10182.71005432
Element set:     704
Inclination:      097.8953 deg
RA of node:       247.2808 deg
Eccentricity:    0.0014987
Arg of perigee:   235.5413 deg
Mean anomaly:     124.4883 deg
Mean motion:   14.81680787 rev/day
Decay rate:       3.43e-06 rev/day^2
Epoch rev:           66812
Checksum:              326

Satellite: RS-30
Catalog number: 32953
Epoch time:      10182.53693838
Element set:     831
Inclination:      082.5002 deg
RA of node:       020.7547 deg
Eccentricity:    0.0019931
Arg of perigee:   071.6172 deg
Mean anomaly:     288.7085 deg
Mean motion:   12.43005971 rev/day
Decay rate:        1.0e-07 rev/day^2
Epoch rev:            9552
Checksum:              286

Satellite: TACSAT-3
Catalog number: 35001
Epoch time:      10181.97172979
Element set:    0324
Inclination:      040.4528 deg
RA of node:       131.2953 deg
Eccentricity:    0.0019626
Arg of perigee:   106.9822 deg
Mean anomaly:     253.3146 deg
Mean motion:   15.41905388 rev/day
Decay rate:      4.554e-05 rev/day^2
Epoch rev:           06276
Checksum:              298

Satellite: PHARMSAT
Catalog number: 35002
Epoch time:      10181.92084552
Element set:    0307
Inclination:      040.4669 deg
RA of node:       129.5546 deg
Eccentricity:    0.0022648
Arg of perigee:   111.8414 deg
Mean anomaly:     248.4815 deg
Mean motion:   15.42420571 rev/day
Decay rate:      3.736e-05 rev/day^2
Epoch rev:           06277
Checksum:              281

Satellite: HAWKSAT1
Catalog number: 35003
Epoch time:      10181.93110625
Element set:    0331
Inclination:      040.4546 deg
RA of node:       123.8890 deg
Eccentricity:    0.0020149
Arg of perigee:   127.0313 deg
Mean anomaly:     233.2358 deg
Mean motion:   15.45621313 rev/day
Decay rate:      8.953e-05 rev/day^2
Epoch rev:           06284
Checksum:              254

Satellite: CP6
Catalog number: 35004
Epoch time:      10181.92051447
Element set:    0325
Inclination:      040.4595 deg
RA of node:       122.9279 deg
Eccentricity:    0.0019258
Arg of perigee:   132.0572 deg
Mean anomaly:     228.1896 deg
Mean motion:   15.46485833 rev/day
Decay rate:     1.0032e-04 rev/day^2
Epoch rev:           06284
Checksum:              291

